FENGYUN 1C DEB, 31510

Orbit data source: Space-Track

FENGYUN 1C DEB, 31510 is space debris in SSO originally from a launch on Mon, 10 May 1999 UTC launched from the Taiyaun Space Center, China (TSC). Fengyun 1C debris stems from the Chinese weather satellite Fengyun-1C, which was intentionally destroyed by a Chinese anti-satellite missile in 2007. This event dramatically increased the amount of space debris, with thousands of trackable fragments posing hazards to satellites and human spaceflight. The Fengyun 1C debris cloud has become a focal point in discussions about space sustainability and the need for international regulations to prevent the creation of new debris.

Loading next visibility...
Identifier
31510, 1999-025BWZ
Orbit
SSO
Country
Flag of CNCN / PRC
Related business
Manufacturer
Unknown
Mission
Spacecraft
Bus & Motor
Unknown
Mass
Unknown
Launch date (UTC)
1999-05-10 (26 years ago)
Launch vehicle
Unknown
Launch site
Taiyaun Space Center, China (TSC)
Object type
Payload
Rocket body
Debris
Shape & HBR
Unknown shape, 0.1 m
Radar Cross Section
Small (<0.1 m²)

Expand to show TLE details & history
Last TLE update: 20 hours ago

TLE from 20 hours ago
0 FENGYUN 1C DEB
1 31510U 99025BWZ 25302.77611843  .00001413  00000-0  62396-3 0  9992
2 31510  98.5541 303.1331 0038804  97.9485  82.0310 14.24402058958616
Epoch: 2025-10-29T18:37Z
TLE epoch observation values (Epoch: 2025-10-29T18:37:36.632Z)
Latitude
-0.53541°
Longitude
165.30595°
Altitude
809.739 km
Speed
7.45 km/s
True Right ascension
08h 12m 12s
True Declination
0° 31' 56"
Sunlit
Object was in daylight at epoch
Visualization orbit readout
Latitude
Unknown
Longitude
Unknown
Altitude
Unknown
Speed
Unknown
Apparent Right ascension
Unknown
Apparent Declination
Unknown
Sunlit
N/A
Visualization observer readout
Local Sidereal Time
10:20:29
Azimuth
Unknown
Elevation
Unknown
Doppler factor
Unknown
Orbital elements
Apogee altitude
835.533 km
Perigee altitude
779.765 km
Semi-major axis
7,185.786 km
Eccentricity
0.00388
Inclination
98.5541°
RAAN
303.1331°
Arg. of periapsis
97.9485°
True anomaly
82.47166°
Mean anomaly
82.031°
Eccentric anomaly
82.2513°
Mean motion
3.56313 °/min
Orbital period
101.03 mins
BSTAR
0.00062396
Loading maneuver chart data...
Computing Atmospheric mass density...

Documentation

Showing up to 5 results
|